Location: Camerons Lookout
(40.9833°S, 175.9333°E)
Time: 11:42:33
(UTC+00:00)

Cosmos 2058 - Pass Details

Date: 14 January 2026
Orbit: 525 x 541 km, 82.5° (Epoch: 16 February)

Event Time Altitude Azimuth Distance (km) Brightness Sun altitude
Rises 11:14:01 0° 194° (SSW) 2,738 7.7 -25.6°
Reaches altitude 10° 11:16:15 10° 200° (SSW) 1,838 6.5 -25.7°
Enters shadow 11:19:33 43° 247° (WSW) 783 3.8 -25.9°
